AirNav   Everest Fuels
 
 657 users online  

TE86 Heritage Airfield
New Berlin, Texas, USA

GOING TO NEW BERLIN?


FAA INFORMATION EFFECTIVE 11 AUGUST 2022

Location

FAA Identifier: TE86
Lat/Long: 29-26-40.0000N 098-06-46.0000W
29-26.666667N 098-06.766667W
29.4444444,-98.1127778
(estimated)
Elevation: 555 ft. / 169 m (estimated)
Variation: 07E (1995)
From city: 3 miles SW of NEW BERLIN, TX
Time zone: UTC -5 (UTC -6 during Standard Time)
Zip code: 78121

Airport Operations

Airport use: Private use. Permission required prior to landing
Activation date: 08/2000
Control tower: no
ARTCC: HOUSTON CENTER
FSS: SAN ANGELO FLIGHT SERVICE STATION
Attendance: DAWN-DUSK
Wind indicator: yes
Segmented circle: no

Airport Communications

WX ASOS at BAZ (16 nm N): 119.325 (830-629-7979)
WX ASOS at SAT (19 nm W): PHONE 210-805-5583
WX ASOS at SSF (20 nm W): PHONE 210-927-9391
  • MULTICOM / CTAF 122.9MHZ

Nearby radio navigation aids

VOR radial/distance  VOR name  Freq  Var
RNDr111/10.1RANDOLPH VORTAC112.3005E
SSFr048/(20.6)STINSON VOR108.4009E
SATr115/21.8SAN ANTONIO VORTAC116.8008E

Airport Services

Runway Information

Runway 17/35

Dimensions: 3100 x 70 ft. / 945 x 21 m
Surface: turf
RUNWAY 17  RUNWAY 35
Traffic pattern: leftright
Obstructions: trees15 ft. fence, 200 ft. from runway

Airport Ownership and Management from official FAA records

Ownership: Privately-owned
OWNER: TEXAS HERITAGE PROPERTY OWNERS ASSOCIATION, INC.
Owner: TEXAS HERITAGE PROPERTY OWNERS ASSN
P.O. BOX 23
LAVERNIA, TX 78121
Phone (210) 414-7445
Manager: DAN KELLY
343 TEXAS HERITAGE DRIVE
LAVERNIA, TX 78121
Phone (830) 391-4120

Airport Operational Statistics

Aircraft based on the field: 23
Single engine airplanes: 23
    

Additional Remarks

FOR CD CTC SAN ANTONIO APCH AT 210-805-5516.

Instrument Procedures

There are no published instrument procedures at TE86.

Some nearby airports with instrument procedures:

KRND - Randolph Air Force Base (10 nm NW)
KBAZ - New Braunfels National Airport (16 nm N)
KSAT - San Antonio International Airport (19 nm W)
KSSF - Stinson Municipal Airport (20 nm W)
KSKF - Kelly Field Airport (25 nm W)
 
Loc | Ops | Rwys | IFR | FBO | Links
Com | Nav | Svcs | Stats | Notes
Area around TE86 (Heritage Airfield)
 
Road maps at: MapQuest Bing Google
 
Aerial photo
WARNING: Photo may not be current or correct
Aerial photo of TE86 (Heritage Airfield)
Photo by Brian Cook
Photo taken 18-Oct-2017

Do you have a better or more recent aerial photo of Heritage Airfield that you would like to share? If so, please send us your photo.

 
Sectional chart

 
Airport distance calculator
Flying to Heritage Airfield? Find the distance to fly.

From to TE86

Sunrise and sunset
Times for 16-Aug-2022
 Local
(UTC-5)
 Zulu
(UTC)
Morning civil twilight06:3711:37
Sunrise07:0212:02
Sunset20:1101:11
Evening civil twilight20:3601:36

Current date and time
Zulu (UTC)  16-Aug-2022 07:34:26
Local (UTC-5)  16-Aug-2022 02:34:26
 
METAR
KRND 
9nm NW 
160656Z AUTO 07004KT 10SM FEW011 24/24 A2993 RMK AO2 SLP126 T02370235 $
KSEQ 
13nm NE 
160656Z AUTO 11003KT 10SM BKN013 25/24 A2993 RMK AO2 SLP130 T02490237 $
KBAZ 
17nm N 
160706Z AUTO 09003KT 10SM SCT014 26/23 A2994 RMK AO2 T02560233
KSAT 
19nm W 
160651Z 10003KT 10SM SCT250 24/23 A2995 RMK AO2 SLP124 T02440228
KSSF 
20nm W 
160653Z AUTO 10004KT 10SM CLR 25/23 A2991 RMK AO2 SLP117 T02500233
TAF
KRND 
9nm NW 
151603Z 1516/1622 10009KT 9999 SCT013 BKN040 BKN150 QNH2991INS TEMPO 1516/1519 9000 -SHRA SCT013 BKN018 BKN080 BECMG 1518/1519 14012G18KT 9999 SCT030 BKN070 QNH2985INS BECMG 1605/1606 VRB06KT 9999 FEW120 BKN170 QNH2992INS BECMG 1608/1609 VRB06KT 4800 BR FEW003 BKN010 OVC018 QNH2993INS BECMG 1614/1615 17009KT 9999 NSW FEW018 SCT026 QNH2988INS TX34/1520Z TN24/1611Z LAST NO AMDS AFT 1600 NEXT 1610
KSAT 
19nm W 
160530Z 1606/1712 15008KT P6SM SCT020 SCT250 FM160900 13003KT P6SM SCT009 OVC015 TEMPO 1610/1614 BKN009 FM161500 15010KT P6SM SCT050 FM170900 17006KT P6SM BKN020
KSSF 
20nm W 
160530Z 1606/1706 13005KT P6SM SCT020 SCT250 FM160900 11003KT P6SM SCT009 OVC015 TEMPO 1610/1614 BKN009 FM161500 14008KT P6SM SCT050
NOTAMs
Click for the latest NOTAMs
NOTAMs are issued by the DoD/FAA and will open in a separate window not controlled by AirNav.

 

 
 

Would you like to see your business listed on this page?

 If your business provides an interesting product or service to pilots, flight crews, aircraft, or users of the Heritage Airfield, you should consider listing it here.  To start the listing process, click on the button below
 
Add a business
 

Other Pages about Heritage Airfield

www.heritageairpark.com
 
Update a link
 
Copyright © AirNav, LLC. All rights reserved. Privacy Policy  Contact